Flag for Philippines Weather past 2 weeks in Olongapo, Philippines

Now
82 °F

Scattered showers. Broken clouds.


Feels Like: 91 °F
Forecast: 78 / 83 °F
Wind: 12 mph from Southwest

Location: Subic Bay Weather Station

Current Time: Aug 1, 2014 at 4:03:40 PM

Latest Report: Aug 1, 2014 at 3:00 PM


Visibility: 6 mi

Pressure: 29.68 "Hg

Humidity: 84%

Dew point: 77 °F

Location of OlongapoLocation

Historic Weather in Olongapo — Graph

°F

Olongapo temperature yesterday

Maximum temperature yesterday: 84 °F (at 9:00 AM)
Minimum temperature yesterday: 79 °F (at 12:00 AM)
Average temperature yesterday: 81 °F

Past Weeks' High & Low Weather Summary

 TemperatureHumidityPressure
High86 °F (Jul 18, 1:00 PM)94% (Jul 17, 11:00 PM)29.86 "Hg (Jul 17, 11:00 PM)
Low75 °F (Jul 17, 8:00 PM)70% (Jul 20, 12:00 PM)29.53 "Hg (Jul 21, 3:00 PM)
Average79 °F86%29.72 "Hg
* Reported Jul 17 3:00 PM — Aug 1 3:00 PM, Olongapo, Weather by CustomWeather, © 2014

Note: Actual official high and low records may vary slightly from our data, if they occured in-between our weather recording intervals... More about our weather records

Advertising

Olongapo weather history for previous 24 hours

 ConditionsComfort  
Time TempWeatherWind HumidityBarometerVisibility
3:00 PM
Aug 1
82 °FScattered showers. Broken clouds.12 mph84%29.68 "Hg6 mi
2:00 PM82 °FRain. Broken clouds.14 mph84%29.68 "Hg6 mi
1:00 PM81 °FRain. Broken clouds.16 mph89%29.71 "Hg6 mi
12:00 PM79 °FRain. Broken clouds.8 mph94%29.71 "Hg6 mi
11:00 AM77 °FLight rain. More clouds than sun.10 mph94%29.71 "Hg6 mi
10:00 AM75 °FStrong thunderstorms. More clouds than sun.17 mph94%29.71 "Hg2 mi
9:00 AM81 °FThunderstorms. More clouds than sun.37 mph84%29.71 "Hg2 mi
8:00 AM81 °FHeavy rain. More clouds than sun.15 mph89%29.68 "Hg2 mi
7:00 AM77 °FHeavy rain. More clouds than sun.13 mph89%29.71 "Hg2 mi
6:00 AM77 °FRain. More clouds than sun.18 mph94%29.68 "Hg3 mi
5:00 AM77 °FLight rain. Mostly cloudy.21 mph89%29.68 "Hg4 mi
4:00 AM79 °FLight rain. Mostly cloudy.25 mph89%29.65 "Hg5 mi
3:00 AM79 °FLight rain. Mostly cloudy.20 mph89%29.65 "Hg5 mi
2:00 AM79 °FLight rain. Mostly cloudy.21 mph89%29.68 "Hg5 mi
1:00 AM81 °FLight rain. Mostly cloudy.9 mph89%29.68 "Hg5 mi
12:00 AM79 °FThunderstorms. Mostly cloudy.12 mph94%29.68 "Hg4 mi
11:00 PM
Jul 31
79 °FThunderstorms. Mostly cloudy.13 mph94%29.71 "Hg4 mi
10:00 PM79 °FLight rain. Mostly cloudy.9 mph94%29.71 "Hg5 mi
9:00 PM79 °FThunderstorms. Mostly cloudy.7 mph89%29.71 "Hg2 mi
8:00 PM79 °FHeavy rain. Mostly cloudy.2 mph89%29.71 "Hg1 mi
7:00 PMN/AThunderstorms.8 mphN/A29.68 "Hg4 mi
6:00 PM81 °FLight rain. More clouds than sun.10 mph89%29.65 "Hg5 mi
5:00 PM81 °FLight rain. Broken clouds.23 mph84%29.65 "Hg5 mi
4:00 PM82 °FLight rain. Broken clouds.14 mph84%29.65 "Hg5 mi
Weather by CustomWeather, © 2014

See weather overviewHow to use our weather pages